{"data":{"norad_id":59757,"epoch":"2026-05-25T02:29:34.170144Z","epoch_age_seconds":63120,"freshness":"FRESH","line1":"1 59757U 24091E   26145.10386771  .00000536  00000+0  92782-5 0  9996","line2":"2 59757  53.1602 189.6956 0001055  73.0078 287.1056 15.69708563117516","mean_motion":15.69708563,"eccentricity":0.0001055,"inclination_deg":53.1602,"raan_deg":189.6956,"arg_perigee_deg":73.0078,"mean_anomaly_deg":287.1056,"bstar":9.2782e-6,"rev_number":11751,"period_min":91.736774197619,"perigee_km":359.02001750736,"apogee_km":360.44170762636,"semimajor_km":6737.8678625669,"source":"CELESTRAK","updated_at":"2026-05-25T13:38:19.056282Z"}}